Simultaneous Nadir Overpasses (SNOs) Predictions

Prediction of SNOs between AQUA and METOP-C Satellite Orbit:

Table of predicted SNOs for the next 14.0 days since TLE Epoch: 10/18/2025
Index Date (AQUA) Time (AQUA) Lat,Lon (AQUA) SZA (AQUA ) Date (METOP-C) Time (METOP-C) Lat,Lon (METOP-C) SZA (METOP-C ) Distance(km) Time Diff (sec)
1 10/18/2025 14:55:57 -77.06, 140.61 93.03 10/18/2025 14:55:09 -77.07, 140.63 93.02 2.05 48
2 10/18/2025 15:45:16 77.11, -51.92 87.03 10/18/2025 15:45:49 77.10, -51.95 87.02 1.79 33
3 10/21/2025 02:54:07 77.06, 141.11 87.88 10/21/2025 02:53:25 77.09, 141.14 87.91 3.48 42
4 10/21/2025 03:43:25 -77.11, -51.38 92.07 10/21/2025 03:44:06 -77.11, -51.48 92.07 2.53 41
5 10/23/2025 14:52:15 -77.07, 141.62 91.23 10/23/2025 14:51:42 -77.10, 141.60 91.21 3.22 33
6 10/23/2025 15:41:34 77.13, -50.94 88.84 10/23/2025 15:42:22 77.11, -51.02 88.82 2.92 48
7 10/26/2025 02:50:23 77.11, 142.00 89.67 10/26/2025 02:49:58 77.10, 142.02 89.66 1.85 25
8 10/26/2025 03:39:41 -77.15, -50.47 90.29 10/26/2025 03:40:38 -77.16, -50.40 90.27 1.98 57
9 10/28/2025 14:48:29 -77.14, 142.44 89.46 10/28/2025 14:48:14 -77.14, 142.62 89.46 4.40 15
10 10/28/2025 15:37:47 77.16, -49.97 90.58 10/28/2025 15:38:54 77.14, -50.03 90.56 2.81 67
11 10/31/2025 01:57:05 -76.68, -22.93 89.05 10/31/2025 01:56:00 -76.63, -26.32 89.22 87.27 65
12 10/31/2025 02:46:32 77.12, 143.07 91.35 10/31/2025 02:46:29 77.11, 142.94 91.33 3.55 3



Historial Predications of SNOs between AQUA and METOP-C
